LBT181 GMME-DTTA

Flight info

Callsign LBT181
Flight time 1h 57m
Altitude 37000
Route VARAS UA411 DOTIV/N0454F390 UA411 ORSUP UZ888 DIMAO UW254 TISRI
Aircraft A20N/M-SDE2E3FGHIRWXY/LB1

Departure

Time 2026-05-07 19:04
Airport Rabat-Salé Airport (GMME)

Arrival

Time 2026-05-07 21:01
Airport Tunis Carthage International Airport (DTTA)
Time Latitude Longitude Altitude Speed Heading
2026-05-07 18:46 34.03868 -6.74924 263 ft 0 kts 174°
2026-05-07 18:57 34.03864 -6.74924 263 ft 3 kts 175°
2026-05-07 18:57 34.03812 -6.74962 264 ft 15 kts 246°
2026-05-07 18:57 34.03832 -6.75085 264 ft 18 kts 301°
2026-05-07 18:57 34.03897 -6.75215 264 ft 18 kts 301°
2026-05-07 18:58 34.03961 -6.75348 264 ft 19 kts 300°
2026-05-07 18:58 34.04030 -6.75479 264 ft 19 kts 303°
2026-05-07 18:58 34.04099 -6.75613 264 ft 18 kts 291°
2026-05-07 18:58 34.04042 -6.75710 265 ft 14 kts 209°
2026-05-07 18:59 34.04007 -6.75789 266 ft 10 kts 277°
2026-05-07 18:59 34.04042 -6.75855 266 ft 10 kts 304°
2026-05-07 18:59 34.04082 -6.75917 265 ft 4 kts 335°
2026-05-07 18:59 34.04110 -6.75907 265 ft 6 kts 28°
2026-05-07 19:00 34.04119 -6.75901 265 ft 0 kts 31°
2026-05-07 19:03 34.04180 -6.75857 264 ft 37 kts 31°
2026-05-07 19:03 34.04597 -6.75560 262 ft 101 kts 30°
2026-05-07 19:03 34.05368 -6.74985 252 ft 156 kts 32°
2026-05-07 19:04 34.06367 -6.74245 465 ft 177 kts 29°
2026-05-07 19:04 34.07406 -6.73493 1209 ft 167 kts 29°
2026-05-07 19:04 34.08379 -6.72782 1894 ft 168 kts 29°
2026-05-07 19:04 34.09453 -6.72004 2243 ft 191 kts 29°
2026-05-07 19:05 34.10627 -6.71150 2673 ft 208 kts 29°
2026-05-07 19:05 34.11905 -6.70218 3165 ft 220 kts 29°
2026-05-07 19:05 34.13238 -6.69239 3783 ft 229 kts 29°
2026-05-07 19:05 34.14617 -6.68226 4562 ft 234 kts 30°
2026-05-07 19:06 34.16013 -6.67201 5449 ft 236 kts 30°
2026-05-07 19:06 34.18734 -6.64894 7131 ft 245 kts 50°
2026-05-07 19:06 34.19472 -6.63060 7695 ft 248 kts 81°
2026-05-07 19:07 34.19285 -6.60923 7918 ft 272 kts 114°
2026-05-07 19:07 34.18295 -6.58906 7932 ft 284 kts 127°
2026-05-07 19:07 34.17113 -6.56991 7933 ft 284 kts 128°
2026-05-07 19:07 34.15919 -6.55088 8108 ft 286 kts 128°
2026-05-07 19:08 34.14725 -6.53153 8850 ft 288 kts 127°
2026-05-07 19:08 34.13538 -6.51210 9815 ft 287 kts 129°
2026-05-07 19:08 34.12302 -6.49303 10705 ft 289 kts 131°
2026-05-07 19:08 34.11026 -6.47403 11507 ft 294 kts 133°
2026-05-07 19:09 34.09726 -6.45478 12281 ft 298 kts 134°
2026-05-07 19:09 34.08406 -6.43524 13020 ft 303 kts 134°
2026-05-07 19:09 34.07063 -6.41535 13744 ft 308 kts 135°
2026-05-07 19:09 34.05699 -6.39512 14442 ft 313 kts 135°
2026-05-07 19:10 34.04317 -6.37455 15121 ft 319 kts 134°
2026-05-07 19:10 34.03091 -6.35167 15796 ft 332 kts 121°
2026-05-07 19:10 34.02348 -6.32457 16278 ft 352 kts 107°
2026-05-07 19:10 34.01919 -6.29463 16534 ft 373 kts 101°
2026-05-07 19:11 34.01664 -6.26273 16775 ft 392 kts 98°
2026-05-07 19:11 34.01487 -6.22915 17022 ft 409 kts 96°
2026-05-07 19:11 34.01324 -6.19418 17260 ft 425 kts 96°
2026-05-07 19:11 34.01139 -6.15807 17478 ft 439 kts 97°
2026-05-07 19:12 34.00921 -6.12082 17687 ft 452 kts 97°
2026-05-07 19:12 34.00674 -6.08256 17906 ft 462 kts 97°
2026-05-07 19:12 34.00405 -6.04368 18223 ft 469 kts 98°
2026-05-07 19:12 34.00125 -6.00437 18617 ft 473 kts 98°
2026-05-07 19:13 33.99837 -5.96470 18999 ft 477 kts 98°
2026-05-07 19:13 33.99544 -5.92476 19403 ft 481 kts 98°
2026-05-07 19:13 33.99249 -5.88452 19818 ft 483 kts 98°
2026-05-07 19:13 33.98955 -5.84462 20219 ft 486 kts 98°
2026-05-07 19:14 33.98652 -5.80382 20586 ft 490 kts 98°
2026-05-07 19:14 33.98346 -5.76276 20976 ft 494 kts 98°
2026-05-07 19:14 33.98040 -5.72145 21414 ft 496 kts 98°
2026-05-07 19:14 33.97737 -5.67985 21826 ft 500 kts 98°
2026-05-07 19:15 33.97435 -5.63799 22248 ft 503 kts 97°
2026-05-07 19:15 33.97130 -5.59588 22682 ft 506 kts 97°
2026-05-07 19:15 33.96823 -5.55355 23071 ft 510 kts 97°
2026-05-07 19:15 33.96510 -5.51081 23459 ft 513 kts 97°
2026-05-07 19:16 33.96194 -5.46789 23831 ft 516 kts 97°
2026-05-07 19:16 33.95873 -5.42462 24211 ft 520 kts 97°
2026-05-07 19:16 33.95549 -5.38116 24608 ft 522 kts 97°
2026-05-07 19:16 33.95223 -5.33759 25050 ft 523 kts 97°
2026-05-07 19:17 33.94896 -5.29412 25586 ft 521 kts 97°
2026-05-07 19:17 33.94568 -5.25067 26090 ft 520 kts 97°
2026-05-07 19:17 33.94239 -5.20734 26609 ft 518 kts 97°
2026-05-07 19:17 33.93908 -5.16416 27076 ft 518 kts 97°
2026-05-07 19:18 33.93577 -5.12097 27529 ft 517 kts 97°
2026-05-07 19:18 33.93247 -5.07784 27978 ft 517 kts 96°
2026-05-07 19:18 33.93191 -5.03458 28413 ft 517 kts 87°
2026-05-07 19:18 33.93672 -4.99176 28872 ft 516 kts 77°
2026-05-07 19:19 33.94620 -4.95017 29310 ft 514 kts 72°
2026-05-07 19:19 33.95717 -4.90925 29761 ft 513 kts 70°
2026-05-07 19:19 33.96892 -4.86870 30175 ft 512 kts 69°
2026-05-07 19:19 33.98080 -4.82898 30585 ft 510 kts 68°
2026-05-07 19:20 33.99288 -4.78883 30988 ft 509 kts 68°
2026-05-07 19:20 34.00491 -4.74867 31356 ft 509 kts 69°
2026-05-07 19:20 34.01683 -4.70853 31724 ft 509 kts 69°
2026-05-07 19:20 34.02868 -4.66825 32031 ft 510 kts 69°
2026-05-07 19:21 34.04046 -4.62793 32370 ft 509 kts 69°
2026-05-07 19:21 34.05217 -4.58764 32725 ft 508 kts 69°
2026-05-07 19:21 34.06383 -4.54741 33080 ft 507 kts 69°
2026-05-07 19:21 34.07546 -4.50723 33403 ft 507 kts 69°
2026-05-07 19:22 34.08703 -4.46721 33710 ft 506 kts 69°
2026-05-07 19:22 34.09865 -4.42701 34000 ft 506 kts 69°
2026-05-07 19:22 34.11021 -4.38695 34281 ft 506 kts 69°
2026-05-07 19:22 34.12176 -4.34690 34598 ft 505 kts 69°
2026-05-07 19:23 34.13330 -4.30681 34884 ft 504 kts 69°
2026-05-07 19:23 34.14479 -4.26682 35163 ft 503 kts 69°
2026-05-07 19:23 34.15624 -4.22689 35460 ft 502 kts 69°
2026-05-07 19:23 34.16766 -4.18703 35711 ft 502 kts 69°
2026-05-07 19:24 34.17896 -4.14719 35918 ft 502 kts 70°
2026-05-07 19:24 34.19009 -4.10722 36132 ft 502 kts 70°
2026-05-07 19:24 34.20109 -4.06729 36387 ft 501 kts 70°
2026-05-07 19:24 34.21206 -4.02731 36605 ft 501 kts 70°
2026-05-07 19:25 34.22286 -3.98789 36809 ft 500 kts 70°
2026-05-07 19:25 34.23394 -3.94742 36937 ft 501 kts 70°
2026-05-07 19:25 34.25557 -3.86837 36945 ft 495 kts 70°
2026-05-07 19:26 34.27708 -3.78961 36943 ft 492 kts 70°
2026-05-07 19:26 34.29854 -3.71091 36943 ft 493 kts 70°
2026-05-07 19:27 34.31998 -3.63208 36944 ft 493 kts 70°
2026-05-07 19:27 34.34136 -3.55324 36943 ft 493 kts 70°
2026-05-07 19:28 34.35908 -3.48768 36944 ft 493 kts 70°
2026-05-07 19:28 34.38068 -3.40882 36944 ft 494 kts 69°
2026-05-07 19:29 34.40252 -3.32986 36943 ft 494 kts 69°
2026-05-07 19:29 34.42434 -3.25082 36944 ft 495 kts 69°
2026-05-07 19:30 34.44608 -3.17167 36944 ft 495 kts 69°
2026-05-07 19:30 34.46776 -3.09246 36944 ft 495 kts 69°
2026-05-07 19:31 34.48938 -3.01319 36944 ft 495 kts 69°
2026-05-07 19:31 34.51101 -2.93373 36943 ft 496 kts 69°
2026-05-07 19:32 34.53243 -2.85477 36944 ft 496 kts 69°
2026-05-07 19:32 34.55396 -2.77519 36944 ft 496 kts 69°
2026-05-07 19:33 34.57559 -2.69562 36943 ft 497 kts 69°
2026-05-07 19:33 34.59737 -2.61604 36951 ft 497 kts 69°
2026-05-07 19:34 34.61888 -2.53643 36953 ft 497 kts 69°
2026-05-07 19:34 34.64015 -2.45647 36952 ft 497 kts 69°
2026-05-07 19:35 34.66139 -2.37629 36952 ft 498 kts 70°
2026-05-07 19:35 34.68258 -2.29623 36962 ft 498 kts 70°
2026-05-07 19:36 34.70374 -2.21612 36962 ft 498 kts 70°
2026-05-07 19:36 34.72484 -2.13599 36962 ft 498 kts 70°
2026-05-07 19:37 34.74590 -2.05578 36962 ft 498 kts 70°
2026-05-07 19:37 34.76806 -1.97608 36961 ft 495 kts 62°
2026-05-07 19:38 34.78427 -1.93942 36961 ft 489 kts 51°
2026-05-07 19:38 34.80415 -1.90609 36963 ft 486 kts 47°
2026-05-07 19:38 34.84499 -1.84051 36961 ft 490 kts 54°
2026-05-07 19:39 34.87785 -1.76739 36962 ft 494 kts 59°
2026-05-07 19:39 34.90836 -1.69227 36954 ft 496 kts 60°
2026-05-07 19:40 34.93819 -1.61648 36945 ft 496 kts 60°
2026-05-07 19:40 34.96799 -1.54070 36943 ft 496 kts 60°
2026-05-07 19:41 34.99770 -1.46536 36944 ft 496 kts 60°
2026-05-07 19:41 35.02761 -1.38947 36943 ft 497 kts 60°
2026-05-07 19:42 35.05756 -1.31344 36944 ft 497 kts 60°
2026-05-07 19:42 35.08746 -1.23730 36944 ft 497 kts 60°
2026-05-07 19:43 35.11726 -1.16123 36951 ft 497 kts 60°
2026-05-07 19:43 35.14706 -1.08497 36954 ft 497 kts 60°
2026-05-07 19:44 35.17677 -1.00876 36962 ft 497 kts 60°
2026-05-07 19:44 35.20648 -0.93238 36972 ft 497 kts 61°
2026-05-07 19:45 35.23597 -0.85633 36963 ft 498 kts 61°
2026-05-07 19:45 35.26563 -0.77975 36962 ft 498 kts 61°
2026-05-07 19:46 35.29524 -0.70308 36962 ft 498 kts 61°
2026-05-07 19:46 35.32477 -0.62642 36959 ft 498 kts 61°
2026-05-07 19:47 35.35426 -0.54968 36952 ft 498 kts 61°
2026-05-07 19:47 35.38373 -0.47280 36949 ft 498 kts 61°
2026-05-07 19:48 35.41315 -0.39589 36944 ft 498 kts 61°
2026-05-07 19:48 35.44251 -0.31893 36954 ft 498 kts 61°
2026-05-07 19:49 35.47183 -0.24189 36953 ft 498 kts 61°
2026-05-07 19:49 35.50108 -0.16486 36953 ft 498 kts 61°
2026-05-07 19:50 35.53033 -0.08768 36961 ft 498 kts 61°
2026-05-07 19:50 35.55932 -0.01095 36953 ft 498 kts 61°
2026-05-07 19:51 35.58847 0.06637 36957 ft 500 kts 60°
2026-05-07 19:51 35.61789 0.14449 36961 ft 506 kts 60°
2026-05-07 19:52 35.64734 0.22300 36968 ft 506 kts 60°
2026-05-07 19:52 35.67678 0.30170 36973 ft 506 kts 60°
2026-05-07 19:53 35.70614 0.38040 36970 ft 506 kts 60°
2026-05-07 19:53 35.73547 0.45919 36979 ft 506 kts 61°
2026-05-07 19:54 35.76474 0.53798 36979 ft 506 kts 61°
2026-05-07 19:54 35.79394 0.61677 36980 ft 505 kts 61°
2026-05-07 19:55 35.82286 0.69504 36979 ft 505 kts 61°
2026-05-07 19:55 35.85191 0.77386 36982 ft 504 kts 62°
2026-05-07 19:56 35.88083 0.85251 36981 ft 504 kts 62°
2026-05-07 19:56 35.90972 0.93124 36980 ft 504 kts 62°
2026-05-07 19:57 35.93851 1.00992 36982 ft 503 kts 62°
2026-05-07 19:57 35.96723 1.08863 36974 ft 502 kts 62°
2026-05-07 19:58 35.99585 1.16724 36970 ft 501 kts 63°
2026-05-07 19:58 36.02436 1.24574 36970 ft 500 kts 63°
2026-05-07 19:59 36.05275 1.32414 36972 ft 499 kts 63°
2026-05-07 19:59 36.08102 1.40237 36972 ft 498 kts 63°
2026-05-07 20:00 36.10857 1.48097 36966 ft 499 kts 69°
2026-05-07 20:00 36.12406 1.56470 36971 ft 501 kts 79°
2026-05-07 20:01 36.13481 1.65005 36970 ft 501 kts 81°
2026-05-07 20:01 36.14454 1.73541 36971 ft 501 kts 81°
2026-05-07 20:02 36.15432 1.82095 36972 ft 501 kts 81°
2026-05-07 20:02 36.16423 1.90635 36970 ft 501 kts 81°
2026-05-07 20:03 36.17419 1.99184 36971 ft 501 kts 81°
2026-05-07 20:03 36.18413 2.07739 36970 ft 501 kts 81°
2026-05-07 20:04 36.19392 2.16228 36972 ft 501 kts 81°
2026-05-07 20:04 36.20370 2.24765 36973 ft 501 kts 82°
2026-05-07 20:05 36.21343 2.33314 36962 ft 501 kts 82°
2026-05-07 20:05 36.22308 2.41862 36963 ft 501 kts 82°
2026-05-07 20:06 36.23267 2.50407 36944 ft 501 kts 82°
2026-05-07 20:06 36.24221 2.58957 36943 ft 501 kts 83°
2026-05-07 20:07 36.25164 2.67467 36944 ft 501 kts 83°
2026-05-07 20:07 36.26104 2.76028 36944 ft 501 kts 83°
2026-05-07 20:08 36.27037 2.84593 36943 ft 502 kts 84°
2026-05-07 20:08 36.27810 2.91730 36945 ft 502 kts 84°
2026-05-07 20:09 36.28733 3.00309 36942 ft 503 kts 84°
2026-05-07 20:10 36.30259 3.14605 36935 ft 504 kts 85°
2026-05-07 20:10 36.31023 3.21827 36934 ft 504 kts 85°
2026-05-07 20:11 36.31927 3.30445 36934 ft 505 kts 85°
2026-05-07 20:11 36.32972 3.40493 36933 ft 506 kts 86°
2026-05-07 20:12 36.33726 3.47756 36934 ft 506 kts 86°
2026-05-07 20:12 36.34612 3.56371 36934 ft 508 kts 86°
2026-05-07 20:13 36.35500 3.65066 36934 ft 508 kts 86°
2026-05-07 20:13 36.36387 3.73819 36934 ft 509 kts 86°
2026-05-07 20:14 36.37262 3.82530 36934 ft 509 kts 86°
2026-05-07 20:14 36.38133 3.91256 36935 ft 510 kts 87°
2026-05-07 20:15 36.38999 3.99984 36934 ft 510 kts 87°
2026-05-07 20:15 36.39854 4.08663 36934 ft 510 kts 87°
2026-05-07 20:16 36.40708 4.17402 36932 ft 510 kts 87°
2026-05-07 20:16 36.41558 4.26161 36942 ft 511 kts 87°
2026-05-07 20:17 36.42400 4.34921 36944 ft 511 kts 88°
2026-05-07 20:17 36.43234 4.43673 36940 ft 511 kts 88°
2026-05-07 20:18 36.44064 4.52438 36944 ft 511 kts 88°
2026-05-07 20:18 36.44887 4.61200 36942 ft 510 kts 88°
2026-05-07 20:19 36.45703 4.69973 36943 ft 511 kts 88°
2026-05-07 20:19 36.46514 4.78752 36944 ft 511 kts 88°
2026-05-07 20:20 36.47318 4.87525 36945 ft 511 kts 88°
2026-05-07 20:20 36.48111 4.96245 36942 ft 511 kts 88°
2026-05-07 20:21 36.48391 5.05079 36945 ft 507 kts 96°
2026-05-07 20:21 36.48346 5.13832 36939 ft 507 kts 97°
2026-05-07 20:22 36.48233 5.22551 36951 ft 508 kts 97°
2026-05-07 20:22 36.48115 5.31335 36961 ft 509 kts 97°
2026-05-07 20:23 36.48003 5.40137 36962 ft 509 kts 97°
2026-05-07 20:23 36.47888 5.48966 36961 ft 511 kts 97°
2026-05-07 20:24 36.47765 5.57808 36961 ft 512 kts 97°
2026-05-07 20:24 36.47637 5.66599 36963 ft 513 kts 97°
2026-05-07 20:25 36.47501 5.75472 36953 ft 513 kts 97°
2026-05-07 20:25 36.47360 5.84338 36953 ft 513 kts 97°
2026-05-07 20:26 36.47210 5.93210 36953 ft 514 kts 97°
2026-05-07 20:26 36.47050 6.02099 36948 ft 515 kts 98°
2026-05-07 20:27 36.46885 6.10997 36940 ft 516 kts 98°
2026-05-07 20:27 36.46714 6.19917 36946 ft 516 kts 98°
2026-05-07 20:28 36.46536 6.28836 36941 ft 516 kts 98°
2026-05-07 20:28 36.46351 6.37753 36935 ft 516 kts 98°
2026-05-07 20:29 36.46160 6.46673 36936 ft 516 kts 98°
2026-05-07 20:29 36.45962 6.55586 36934 ft 516 kts 98°
2026-05-07 20:30 36.45757 6.64504 36932 ft 516 kts 98°
2026-05-07 20:30 36.45548 6.73407 36936 ft 515 kts 98°
2026-05-07 20:31 36.45330 6.82310 36933 ft 516 kts 98°
2026-05-07 20:31 36.45107 6.91155 36936 ft 516 kts 99°
2026-05-07 20:32 36.44873 7.00126 36933 ft 517 kts 99°
2026-05-07 20:32 36.44634 7.09062 36914 ft 517 kts 99°
2026-05-07 20:33 36.44389 7.17996 36929 ft 518 kts 99°
2026-05-07 20:33 36.44137 7.26958 36923 ft 520 kts 99°
2026-05-07 20:34 36.43878 7.35889 36920 ft 521 kts 99°
2026-05-07 20:34 36.43611 7.44893 36919 ft 522 kts 99°
2026-05-07 20:35 36.43383 7.52455 36908 ft 523 kts 100°
2026-05-07 20:35 36.43055 7.62970 36903 ft 524 kts 100°
2026-05-07 20:36 36.42766 7.72027 36903 ft 526 kts 100°
2026-05-07 20:36 36.42468 7.81113 36901 ft 527 kts 100°
2026-05-07 20:37 36.42164 7.90209 36901 ft 527 kts 101°
2026-05-07 20:37 36.41852 7.99318 36904 ft 528 kts 101°
2026-05-07 20:38 36.41535 8.08428 36905 ft 529 kts 101°
2026-05-07 20:38 36.41208 8.17564 36911 ft 530 kts 101°
2026-05-07 20:39 36.40876 8.26701 36911 ft 530 kts 101°
2026-05-07 20:39 36.40713 8.35864 36900 ft 537 kts 92°
2026-05-07 20:40 36.41816 8.45093 36678 ft 541 kts 85°
2026-05-07 20:40 36.42492 8.49691 36072 ft 542 kts 85°
2026-05-07 20:40 36.43179 8.54306 35343 ft 545 kts 84°
2026-05-07 20:40 36.43873 8.58946 34590 ft 548 kts 84°
2026-05-07 20:41 36.44562 8.63561 33856 ft 551 kts 84°
2026-05-07 20:41 36.45259 8.68242 33109 ft 553 kts 84°
2026-05-07 20:41 36.45957 8.72935 32503 ft 551 kts 84°
2026-05-07 20:41 36.46650 8.77604 31988 ft 547 kts 84°
2026-05-07 20:42 36.47334 8.82231 31410 ft 543 kts 84°
2026-05-07 20:42 36.48013 8.86834 30800 ft 541 kts 84°
2026-05-07 20:42 36.48686 8.91421 30197 ft 537 kts 83°
2026-05-07 20:42 36.49355 8.95985 29526 ft 536 kts 84°
2026-05-07 20:43 36.50018 9.00532 28768 ft 535 kts 83°
2026-05-07 20:43 36.50681 9.05090 27960 ft 536 kts 83°
2026-05-07 20:43 36.51342 9.09647 27129 ft 536 kts 83°
2026-05-07 20:43 36.52003 9.14209 26277 ft 536 kts 83°
2026-05-07 20:44 36.52661 9.18769 25366 ft 537 kts 83°
2026-05-07 20:44 36.53321 9.23351 24451 ft 537 kts 83°
2026-05-07 20:44 36.53975 9.27905 23593 ft 534 kts 83°
2026-05-07 20:44 36.54624 9.32427 23150 ft 523 kts 83°
2026-05-07 20:45 36.55249 9.36788 23107 ft 503 kts 83°
2026-05-07 20:45 36.55862 9.41095 22891 ft 515 kts 83°
2026-05-07 20:45 36.56489 9.45540 22348 ft 525 kts 83°
2026-05-07 20:45 36.57121 9.50005 21743 ft 524 kts 83°
2026-05-07 20:46 36.57752 9.54466 21140 ft 521 kts 83°
2026-05-07 20:46 36.58375 9.58882 20546 ft 517 kts 83°
2026-05-07 20:46 36.58993 9.63280 19948 ft 514 kts 83°
2026-05-07 20:46 36.59605 9.67646 19350 ft 512 kts 83°
2026-05-07 20:47 36.60213 9.72000 18750 ft 509 kts 83°
2026-05-07 20:47 36.60817 9.76334 18152 ft 507 kts 83°
2026-05-07 20:47 36.61416 9.80646 17550 ft 504 kts 83°
2026-05-07 20:47 36.62003 9.84885 16951 ft 502 kts 83°
2026-05-07 20:48 36.62590 9.89134 16360 ft 494 kts 83°
2026-05-07 20:48 36.63167 9.93311 15763 ft 485 kts 83°
2026-05-07 20:48 36.63731 9.97413 15162 ft 476 kts 83°
2026-05-07 20:48 36.64284 10.01447 14567 ft 468 kts 83°
2026-05-07 20:49 36.64826 10.05411 13969 ft 461 kts 83°
2026-05-07 20:49 36.65359 10.09319 13370 ft 453 kts 83°
2026-05-07 20:49 36.65881 10.13156 12765 ft 446 kts 83°
2026-05-07 20:49 36.66393 10.16933 12173 ft 439 kts 83°
2026-05-07 20:50 36.66893 10.20625 11769 ft 423 kts 83°
2026-05-07 20:50 36.67370 10.24136 11461 ft 400 kts 83°
2026-05-07 20:50 36.67816 10.27475 11168 ft 379 kts 85°
2026-05-07 20:50 36.67907 10.30648 10832 ft 357 kts 98°
2026-05-07 20:51 36.67623 10.33671 10255 ft 348 kts 102°
2026-05-07 20:51 36.67261 10.36626 9631 ft 342 kts 103°
2026-05-07 20:51 36.66889 10.39531 8941 ft 337 kts 103°
2026-05-07 20:51 36.66509 10.42394 8181 ft 333 kts 103°
2026-05-07 20:52 36.66125 10.45183 7449 ft 329 kts 103°
2026-05-07 20:52 36.65727 10.47978 6711 ft 325 kts 103°
2026-05-07 20:52 36.65331 10.50691 6191 ft 314 kts 103°
2026-05-07 20:52 36.64942 10.53316 5788 ft 300 kts 103°
2026-05-07 20:53 36.64573 10.55792 5501 ft 284 kts 103°
2026-05-07 20:53 36.64330 10.57407 5105 ft 276 kts 103°
2026-05-07 20:53 36.64263 10.60504 4269 ft 273 kts 75°
2026-05-07 20:53 36.64803 10.61946 4072 ft 274 kts 54°
2026-05-07 20:54 36.66227 10.63496 3995 ft 275 kts 26°
2026-05-07 20:54 36.68064 10.64079 3793 ft 272 kts 360°
2026-05-07 20:54 36.69901 10.63772 3370 ft 270 kts 346°
2026-05-07 20:54 36.71731 10.63163 3045 ft 268 kts 343°
2026-05-07 20:55 36.73406 10.62212 2989 ft 265 kts 321°
2026-05-07 20:55 36.74550 10.60484 2989 ft 250 kts 298°
2026-05-07 20:55 36.75286 10.58610 2991 ft 235 kts 292°
2026-05-07 20:55 36.75784 10.56719 2990 ft 226 kts 283°
2026-05-07 20:56 36.76132 10.54806 2999 ft 237 kts 282°
2026-05-07 20:56 36.76510 10.52689 2984 ft 259 kts 282°
2026-05-07 20:56 36.76899 10.50461 2985 ft 264 kts 282°
2026-05-07 20:56 36.77276 10.48258 2984 ft 249 kts 281°
2026-05-07 20:57 36.77615 10.46254 2990 ft 226 kts 281°
2026-05-07 20:57 36.77964 10.44372 2992 ft 222 kts 287°
2026-05-07 20:57 36.78495 10.42557 2990 ft 223 kts 292°
2026-05-07 20:57 36.79108 10.40777 2821 ft 223 kts 292°
2026-05-07 20:58 36.79708 10.38987 2501 ft 223 kts 292°
2026-05-07 20:58 36.80299 10.37199 2185 ft 222 kts 292°
2026-05-07 20:58 36.80885 10.35442 1898 ft 212 kts 292°
2026-05-07 20:58 36.81426 10.33816 1616 ft 196 kts 292°
2026-05-07 20:59 36.81927 10.32306 1362 ft 181 kts 292°
2026-05-07 20:59 36.82394 10.30901 1135 ft 170 kts 293°
2026-05-07 20:59 36.82819 10.29623 921 ft 154 kts 293°
2026-05-07 20:59 36.83212 10.28440 713 ft 140 kts 293°
2026-05-07 21:00 36.83575 10.27348 535 ft 134 kts 293°
2026-05-07 21:00 36.83931 10.26277 364 ft 133 kts 293°
2026-05-07 21:00 36.84285 10.25208 182 ft 133 kts 293°
2026-05-07 21:00 36.84638 10.24146 40 ft 131 kts 293°
2026-05-07 21:01 36.84897 10.23371 31 ft 54 kts 292°
2026-05-07 21:01 36.84954 10.23195 32 ft 15 kts 292°
2026-05-07 21:01 36.85001 10.23048 32 ft 31 kts 291°
2026-05-07 21:01 36.85081 10.22808 37 ft 26 kts 293°
2026-05-07 21:02 36.85152 10.22601 39 ft 26 kts 293°
2026-05-07 21:02 36.85137 10.22436 36 ft 18 kts 191°
2026-05-07 21:02 36.85086 10.22420 35 ft 0 kts 195°
2026-05-07 21:02 36.85078 10.22417 35 ft 7 kts 195°
2026-05-07 21:03 36.84994 10.22392 34 ft 14 kts 188°
2026-05-07 21:03 36.84898 10.22363 34 ft 14 kts 202°
2026-05-07 21:03 36.84873 10.22265 32 ft 13 kts 287°
2026-05-07 21:03 36.84894 10.22159 33 ft 13 kts 282°
2026-05-07 21:04 36.84912 10.22050 33 ft 13 kts 283°
2026-05-07 21:04 36.84934 10.21942 33 ft 13 kts 284°
2026-05-07 21:04 36.84903 10.21892 33 ft 0 kts 192°